User: anonymous   Login
Location: Bonn
(50.7330°N, 7.1000°E)
Time: 13:31:05
(UTC+01:00)
Language:

Iridium 84 - Orbit

View from above orbital plane
View from above orbital plane
View from above satellite
View from above satellite

Ground track
Ground track

The orbit data is extracted from the following two-line orbital elements,

1 25530U 98066D   15059.27153514  .00000537  00000-0  18463-3 0  9992
2 25530 086.3989 341.0961 0003759 071.8510 288.3094 14.34220349856612
Epoch (UTC): 28 February 2015 06:31:00
Eccentricity: 0.0003759
inclination: 86.3989°
perigee height: 775 km
apogee height: 780 km
right ascension of ascending node: 341.0961°
argument of perigee: 71.8510°
revolutions per day: 14.34220349
mean anomaly at epoch: 288.3094°
orbit number at epoch: 85661

The dashed part of the orbit path shows where the satellite is in the earth's shadow,  

DLR